Wind_Speed
16 17 19 20 21 21 22 23 26 28 30 26 31 33 30 26 21 26 28 30 33 29 32 26 24 23 20 13 14 11 8 3 4 5 7 14 20 21 17 12 14 13 10 14
12 13 15 17 19 21 22 22 22 21 22 23 23 21 19 21 26 26 23 29 33 29 30 26 23 26 24 16 12 10 10 7 3 3 9 11 20 24 24 20 14 12 15 18
9 8 9 11 11 12 13 15 15 18 21 22 21 18 19 24 20 15 20 18 26 30 30 25 27 31 28 21 15 10 8 9 9 9 8 15 17 21 21 24 22 17 20 18
11 12 9 9 8 7 5 7 10 11 13 15 19 18 23 26 27 16 14 17 21 25 28 25 31 26 27 24 24 11 8 10 8 11 10 13 18 18 20 22 25 25 22 20
16 16 15 16 16 16 11 12 9 6 7 9 10 19 22 27 23 26 24 21 22 21 28 25 21 22 31 30 27 15 9 8 9 14 11 11 22 19 19 18 18 24 25 23
21 21 23 22 18 18 18 17 16 14 12 9 8 17 22 26 23 20 15 11 19 21 28 28 24 25 31 31 21 15 18 13 13 12 12 10 24 24 19 15 17 20 22 22
23 24 24 25 27 27 23 19 20 20 17 15 13 11 23 30 30 31 27 21 16 19 33 37 32 28 28 31 26 21 21 18 15 10 14 14 12 29 31 32 23 21 23 24
29 28 28 25 29 29 28 29 27 20 18 18 17 16 9 23 37 38 28 25 20 20 25 36 44 35 27 30 28 24 22 16 14 12 14 14 9 14 28 31 26 23 25 27
34 33 33 30 32 31 31 30 29 30 24 22 22 19 11 17 21 39 37 28 23 25 21 21 33 40 43 34 29 26 30 20 22 16 17 14 13 11 15 22 23 22 24 23
41 36 39 36 31 37 34 35 32 29 33 30 28 21 21 23 19 20 26 26 24 28 29 28 27 32 37 28 23 26 27 28 22 21 24 17 15 18 12 14 26 27 24 21
41 42 47 43 39 36 38 38 37 33 32 34 30 28 28 25 18 15 18 21 33 27 27 30 33 32 44 40 32 36 33 35 29 22 23 23 22 24 22 15 18 24 23 19
46 42 47 50 48 43 39 39 41 38 38 36 34 31 29 29 21 15 16 20 21 15 27 34 33 42 35 38 35 33 39 35 27 32 28 24 31 28 24 14 15 23 25 19
46 49 47 50 53 51 48 46 47 42 42 37 37 34 38 34 27 27 18 18 25 13 23 28 37 33 33 29 31 35 35 31 29 24 26 28 31 31 25 21 13 25 25 25
50 52 50 48 52 55 54 44 42 45 42 42 36 39 35 36 35 33 28 34 27 16 17 24 31 44 37 34 34 33 35 36 33 24 23 27 32 30 23 25 16 24 25 27
52 49 54 50 52 55 54 48 43 45 41 40 42 38 37 37 36 36 34 36 30 24 23 22 20 31 44 40 37 24 33 32 28 27 25 27 33 35 31 27 22 16 26 24
57 52 50 49 53 56 54 48 43 43 42 43 43 41 36 39 38 35 31 32 30 28 23 23 21 25 34 43 45 44 35 36 31 29 29 31 34 35 37 32 26 18 30 29
56 58 50 45 56 54 52 46 45 46 49 45 44 46 44 40 38 35 30 31 26 25 20 25 25 25 30 38 44 46 43 42 40 35 31 33 32 35 37 34 26 21 26 32
56 60 60 52 59 57 47 51 51 49 44 35 40 48 47 43 37 37 33 32 26 27 22 21 26 26 26 34 39 44 46 46 42 39 36 35 38 36 39 38 36 25 28 32
61 60 64 57 58 54 53 55 61 55 50 46 43 51 49 42 37 39 33 34 27 24 17 19 27 22 22 27 33 37 41 41 41 43 42 40 40 40 40 39 39 34 31 35
60 58 57 56 54 47 57 63 66 65 57 56 58 50 45 41 34 37 38 39 34 17 20 21 26 19 18 22 26 31 38 39 40 44 47 48 50 47 45 44 43 46 38 37
56 54 54 50 47 41 54 68 79 79 62 59 56 49 44 38 34 38 36 28 32 28 24 30 23 15 15 17 20 25 32 37 40 43 49 52 52 54 49 50 49 47 46 44
44 45 44 47 42 42 58 72 75 66 61 60 49 51 44 38 39 40 41 46 38 39 33 29 20 17 15 19 15 20 28 35 37 41 45 48 55 55 54 53 53 54 53 52
26 34 37 37 38 45 57 66 67 60 57 55 51 49 49 44 41 36 44 42 40 30 32 35 29 12 16 24 24 19 23 29 36 39 39 44 48 52 56 60 58 56 57 56
27 33 31 28 32 42 48 53 54 60 42 54 49 52 41 57 52 49 41 35 28 37 26 15 20 20 21 26 30 30 29 30 29 34 35 37 43 48 51 56 61 64 62 60
38 42 41 41 44 48 47 54 66 69 52 51 61 57 45 58 51 56 56 52 36 44 26 26 13 14 22 30 37 35 32 32 29 31 31 34 37 41 47 50 54 58 62 65
42 43 41 48 53 61 63 59 57 60 67 63 68 63 52 58 54 44 43 41 39 35 25 29 33 32 34 31 32 32 30 28 26 28 30 31 35 38 42 45 48 51 54 57
Wind_Direction
261 258 257 254 252 251 251 249 246 250 255 256 252 254 257 254 279 270 255 236 241 238 247 246 247 237 244 254 272 295 263 244 257 211 217 214 200 196 200 200 205 207 212 193
279 269 264 263 260 256 255 254 251 244 253 249 248 248 249 241 224 235 242 244 240 237 241 243 228 225 241 246 256 274 273 246 276 241 244 240 223 218 214 211 207 190 200 209
296 289 281 273 269 268 264 259 257 256 251 247 245 240 220 228 218 246 261 249 250 237 233 234 209 227 233 251 252 277 257 267 253 278 285 239 231 226 216 213 222 224 217 217
287 278 279 275 272 268 276 271 261 262 261 251 236 231 216 212 199 203 253 261 258 249 230 220 212 222 230 247 256 264 256 265 260 266 285 257 224 227 223 215 222 229 230 218
278 283 283 265 267 270 268 269 258 241 253 261 237 226 219 219 212 217 223 235 253 239 230 207 210 226 233 230 244 271 234 282 289 266 278 276 220 220 221 205 218 222 223 212
286 274 275 276 275 268 264 256 255 260 264 277 255 220 223 217 230 217 233 261 236 222 222 183 192 201 225 229 234 265 242 267 280 265 266 282 214 214 208 205 218 222 220 216
287 282 275 266 265 266 264 260 257 261 260 262 270 246 227 212 216 226 232 209 220 220 217 212 207 212 221 235 239 257 251 254 275 253 257 261 232 220 211 215 231 232 237 236
285 284 278 276 272 269 265 256 253 254 254 255 251 253 211 234 233 241 246 239 239 216 223 210 210 216 219 228 237 240 237 240 231 241 247 255 250 241 233 233 237 236 236 230
282 279 275 273 272 269 270 263 250 250 252 251 243 245 241 245 246 243 241 220 249 252 232 226 225 222 230 240 238 236 237 241 259 240 237 240 243 255 242 235 230 237 245 244
276 273 276 271 264 270 266 265 261 249 246 247 253 241 227 232 238 240 247 243 254 252 247 229 224 218 212 221 233 236 231 238 240 243 231 247 262 243 247 251 234 236 240 237
276 271 275 271 269 260 262 262 260 255 248 243 244 240 230 236 245 254 230 199 217 238 232 231 223 214 209 218 222 231 233 232 248 227 237 244 268 248 242 255 232 227 226 224
278 272 266 271 267 264 257 257 252 249 247 241 238 237 239 231 228 207 182 199 231 232 243 225 230 216 223 228 235 229 240 247 230 237 244 254 263 253 241 240 227 219 229 231
282 274 264 262 266 264 257 246 250 245 243 243 238 235 236 238 221 209 243 242 213 245 238 248 230 224 227 231 242 235 238 226 243 240 245 244 250 242 236 231 244 214 218 221
275 270 266 260 260 262 260 252 250 251 247 242 240 237 230 236 228 219 218 230 220 233 233 228 232 226 225 233 241 235 238 245 241 241 246 245 242 232 236 235 247 223 213 220
279 269 268 265 259 258 256 253 249 249 244 243 242 239 230 239 232 228 229 237 238 252 243 237 237 233 221 229 233 238 232 222 228 241 236 238 234 236 237 235 246 240 217 223
277 272 265 258 256 251 248 250 249 244 238 237 236 240 233 232 236 231 229 238 240 248 252 252 240 242 238 232 231 228 235 232 233 233 234 243 239 244 236 237 235 243 221 217
271 269 256 248 250 248 240 243 240 234 234 230 230 231 230 231 228 230 224 233 244 246 254 252 250 244 241 237 235 237 237 239 236 233 238 238 240 237 230 232 239 233 224 224
268 267 262 253 248 242 238 235 236 230 230 229 237 231 228 224 223 225 225 212 227 226 246 247 259 254 248 239 236 237 237 237 235 235 235 240 235 234 235 235 236 233 235 228
269 263 263 256 249 236 229 232 230 224 216 206 221 232 225 218 216 218 215 221 210 246 257 263 261 267 265 255 242 242 242 239 237 232 231 236 234 233 234 234 234 230 234 234
269 267 263 259 251 237 220 221 225 222 210 217 223 223 220 216 211 212 210 214 223 221 240 251 263 264 265 262 255 245 244 244 242 237 231 232 236 241 239 238 241 236 233 237
269 267 266 259 253 233 221 220 221 220 205 212 218 211 212 210 212 207 206 210 200 218 244 256 255 268 286 271 266 260 251 248 247 244 238 236 238 240 241 239 237 241 241 238
269 264 259 252 244 226 216 217 225 224 209 213 209 216 213 205 201 198 205 203 210 215 236 230 249 253 300 296 288 277 262 256 251 252 249 245 242 241 242 240 239 241 244 246
265 253 245 244 231 214 210 216 217 213 210 210 205 215 215 194 188 204 210 215 204 217 219 233 238 254 291 280 294 299 301 286 263 255 255 256 253 249 245 244 243 243 246 245
237 229 214 216 210 211 209 207 198 202 194 208 200 198 195 182 191 199 192 198 188 189 214 204 204 240 257 269 290 298 297 298 281 266 262 261 257 253 251 250 248 246 248 249
212 214 204 196 197 199 189 188 180 183 177 190 194 196 183 183 189 192 199 204 214 213 241 260 235 218 261 263 276 284 289 285 279 274 269 271 268 262 258 255 252 251 251 251
215 215 200 185 182 173 177 172 173 186 198 199 199 203 196 188 195 192 201 210 215 213 223 249 253 253 261 262 260 275 276 278 279 282 282 279 278 272 268 262 259 257 255 255
Height
10911 10912 10912 10913 10914 10915 10917 10918 10920 10918 10920 10922 10920 10920 10926 10928 10934 10931 10936 10934 10936 10943 10945 10953 10954 10960 10964 10966 10966 10966 10967 10966 10966 10968 10969 10970 10970 10972 10975 10978 10978 10981 10984 10985
10906 10907 10907 10907 10908 10909 10911 10912 10914 10915 10914 10914 10914 10916 10919 10920 10922 10925 10926 10930 10930 10934 10937 10943 10950 10954 10958 10963 10965 10965 10964 10965 10966 10967 10967 10967 10967 10970 10974 10978 10978 10979 10980 10982
10904 10904 10904 10904 10904 10904 10905 10906 10906 10907 10907 10908 10909 10911 10913 10912 10916 10919 10922 10922 10925 10926 10929 10936 10944 10948 10953 10958 10963 10963 10964 10964 10965 10965 10965 10965 10966 10969 10972 10976 10976 10976 10978 10980
10902 10902 10902 10901 10901 10901 10902 10902 10901 10902 10902 10902 10902 10903 10903 10905 10909 10910 10915 10916 10920 10922 10925 10930 10937 10943 10950 10955 10957 10961 10961 10962 10963 10962 10962 10962 10964 10966 10969 10973 10975 10972 10975 10978
10898 10899 10899 10898 10898 10898 10899 10898 10898 10898 10898 10898 10898 10899 10900 10901 10903 10905 10911 10912 10914 10918 10924 10928 10933 10937 10945 10949 10953 10957 10958 10959 10961 10961 10961 10958 10959 10961 10965 10970 10972 10972 10973 10974
10892 10893 10893 10893 10894 10894 10894 10895 10894 10895 10895 10897 10896 10895 10892 10893 10899 10903 10906 10904 10909 10912 10921 10923 10927 10932 10938 10944 10949 10952 10955 10956 10957 10959 10959 10957 10956 10958 10963 10967 10970 10970 10972 10974
10887 10886 10886 10887 10886 10887 10888 10888 10888 10890 10892 10894 10894 10894 10893 10890 10895 10899 10903 10904 10905 10908 10915 10918 10922 10926 10930 10938 10945 10948 10949 10952 10954 10956 10957 10956 10955 10955 10959 10963 10964 10965 10966 10967
10880 10879 10878 10880 10878 10878 10879 10881 10881 10883 10886 10887 10889 10890 10892 10889 10888 10889 10899 10900 10903 10910 10909 10911 10916 10921 10925 10932 10940 10943 10945 10946 10948 10952 10954 10954 10954 10953 10954 10957 10959 10962 10961 10962
10869 10869 10869 10871 10869 10870 10870 10869 10874 10876 10878 10880 10882 10885 10888 10885 10886 10885 10891 10902 10908 10908 10907 10905 10910 10917 10920 10925 10934 10937 10941 10943 10944 10948 10951 10952 10954 10952 10950 10951 10954 10957 10956 10958
10855 10860 10856 10858 10863 10858 10861 10861 10864 10866 10869 10872 10875 10882 10884 10882 10885 10885 10885 10894 10898 10899 10902 10906 10906 10910 10916 10920 10924 10928 10934 10938 10940 10942 10946 10948 10951 10950 10950 10949 10951 10951 10953 10955
10846 10847 10842 10845 10848 10850 10849 10850 10853 10857 10859 10862 10864 10871 10874 10877 10881 10881 10883 10885 10886 10890 10893 10899 10902 10907 10910 10912 10917 10922 10926 10931 10935 10938 10940 10943 10945 10946 10948 10948 10947 10949 10948 10951
10827 10830 10832 10829 10830 10834 10837 10836 10837 10842 10845 10851 10857 10862 10865 10869 10875 10874 10877 10884 10883 10889 10891 10893 10895 10900 10904 10907 10910 10917 10920 10926 10928 10931 10934 10937 10940 10941 10943 10945 10945 10946 10946 10948
10814 10811 10812 10814 10814 10815 10818 10817 10820 10830 10834 10842 10847 10852 10853 10859 10868 10871 10876 10876 10881 10885 10888 10887 10890 10895 10900 10903 10904 10910 10914 10921 10923 10924 10926 10929 10933 10936 10937 10940 10941 10943 10943 10944
10792 10790 10791 10798 10798 10795 10798 10810 10813 10815 10825 10829 10838 10841 10848 10849 10857 10863 10867 10864 10870 10873 10873 10874 10880 10885 10893 10898 10900 10903 10907 10911 10917 10919 10920 10922 10925 10928 10931 10933 10936 10939 10942 10943
10769 10773 10771 10777 10778 10776 10781 10794 10799 10803 10813 10819 10824 10830 10839 10842 10844 10852 10856 10856 10865 10868 10874 10865 10871 10873 10882 10889 10895 10898 10900 10905 10910 10912 10913 10915 10919 10922 10926 10930 10932 10932 10936 10938
10743 10748 10753 10757 10754 10757 10767 10783 10785 10790 10795 10803 10811 10821 10830 10829 10832 10840 10851 10852 10857 10862 10864 10864 10866 10866 10872 10878 10883 10889 10895 10899 10903 10905 10906 10909 10914 10916 10921 10925 10926 10923 10928 10932
10722 10721 10728 10738 10732 10740 10755 10763 10768 10772 10775 10782 10794 10803 10812 10816 10824 10832 10839 10840 10846 10851 10853 10858 10861 10863 10866 10869 10873 10879 10886 10891 10896 10897 10899 10903 10907 10911 10915 10918 10919 10918 10920 10926
10702 10696 10699 10714 10710 10720 10744 10743 10745 10754 10762 10774 10785 10790 10795 10805 10818 10821 10826 10832 10833 10839 10843 10850 10855 10858 10860 10864 10867 10871 10877 10882 10886 10889 10891 10896 10901 10905 10908 10911 10913 10915 10916 10919
10671 10674 10671 10681 10687 10707 10720 10722 10723 10732 10748 10761 10765 10768 10782 10794 10810 10814 10818 10820 10831 10834 10839 10842 10848 10851 10853 10856 10859 10864 10868 10872 10876 10881 10884 10888 10893 10898 10900 10903 10906 10908 10910 10913
10646 10648 10649 10658 10664 10684 10694 10693 10691 10700 10734 10739 10749 10759 10773 10786 10798 10807 10809 10814 10821 10825 10831 10835 10842 10845 10847 10849 10854 10858 10862 10865 10869 10873 10876 10879 10883 10888 10892 10895 10898 10901 10903 10906
10626 10629 10630 10636 10644 10662 10674 10675 10671 10681 10719 10722 10736 10753 10763 10780 10795 10803 10804 10809 10813 10817 10823 10829 10836 10838 10841 10843 10847 10852 10856 10860 10864 10867 10870 10873 10875 10878 10882 10885 10888 10891 10894 10896
10609 10608 10610 10612 10621 10636 10643 10646 10652 10683 10707 10714 10733 10742 10757 10771 10779 10789 10798 10802 10807 10806 10818 10825 10829 10831 10834 10841 10843 10848 10852 10854 10856 10860 10862 10865 10867 10869 10872 10875 10878 10881 10883 10886
10591 10590 10592 10595 10603 10608 10617 10628 10646 10670 10691 10704 10719 10735 10747 10759 10762 10775 10786 10796 10802 10807 10812 10814 10818 10824 10828 10834 10839 10843 10847 10850 10850 10851 10854 10857 10858 10860 10863 10865 10867 10870 10872 10875
10571 10573 10576 10584 10591 10598 10609 10622 10640 10656 10675 10694 10710 10722 10735 10745 10754 10765 10777 10785 10792 10800 10811 10809 10808 10810 10817 10826 10832 10837 10840 10842 10841 10841 10843 10845 10846 10848 10851 10854 10856 10859 10861 10862
10551 10555 10560 10570 10578 10590 10604 10613 10631 10646 10657 10678 10696 10709 10721 10732 10746 10756 10768 10777 10785 10793 10803 10801 10800 10805 10812 10821 10828 10830 10830 10830 10830 10833 10833 10835 10836 10838 10840 10841 10844 10846 10848 10850
10537 10546 10555 10563 10572 10584 10596 10616 10630 10642 10656 10668 10682 10702 10713 10719 10732 10746 10757 10767 10777 10791 10799 10798 10798 10802 10812 10815 10819 10820 10821 10822 10823 10824 10825 10825 10827 10829 10831 10831 10833 10834 10834 10835